This is the latest recevied weather packets stored in our database for station/object DL2AMT-9. If no packets are shown the sender has not sent any weather packets the latest 10 day(s).
| Time | Temp. | Humidity | Pressure | Rain* | Wind** | Luminosity | Snow |
|---|---|---|---|---|---|---|---|
| 1777839690 | 31.67° C | 34% | 967.6 hPa | - | - | - | - |
| 1777839390 | 31.67° C | 34% | 967.6 hPa | - | - | - | - |
| 1777839090 | 30.56° C | 35% | 967.5 hPa | - | - | - | - |
| 1777836570 | 28.89° C | 34% | 967.3 hPa | - | - | - | - |
| 1777836270 | 29.44° C | 34% | 967.4 hPa | - | - | - | - |
| 1777835970 | 29.44° C | 34% | 967.3 hPa | - | - | - | - |
| 1777835670 | 29.44° C | 33% | 967.3 hPa | - | - | - | - |
| 1777835370 | 29.44° C | 32% | 967.3 hPa | - | - | - | - |
| 1777835070 | 29.44° C | 33% | 967.3 hPa | - | - | - | - |
| 1777834770 | 29.44° C | 33% | 967.2 hPa | - | - | - | - |
| 1777834470 | 28.89° C | 32% | 967.2 hPa | - | - | - | - |
| 1777834170 | 28.33° C | 33% | 967.1 hPa | - | - | - | - |
| 1777826317 | 27.78° C | 28% | 967.4 hPa | - | - | - | - |
| 1777826016 | 28.33° C | 28% | 967.2 hPa | - | - | - | - |
| 1777825716 | 29.44° C | 28% | 967.3 hPa | - | - | - | - |
| 1777825275 | 27.78° C | 28% | 967.4 hPa | - | - | - | - |
| 1777824974 | 28.33° C | 27% | 967.4 hPa | - | - | - | - |
| 1777824675 | 28.33° C | 27% | 967.4 hPa | - | - | - | - |
| 1777824374 | 28.89° C | 27% | 967.4 hPa | - | - | - | - |
| 1777824074 | 29.44° C | 27% | 967.4 hPa | - | - | - | - |
| 1777823550 | 28.89° C | 28% | 967.5 hPa | - | - | - | - |
| 1777823249 | 28.89° C | 27% | 967.5 hPa | - | - | - | - |
| 1777822950 | 28.89° C | 27% | 967.5 hPa | - | - | - | - |
| 1777821969 | 29.44° C | 26% | 967.6 hPa | - | - | - | - |
| 1777821668 | 29.44° C | 26% | 967.6 hPa | - | - | - | - |
* Rain since midnight (hover to see other rain measurements)
** Current wind speed in m/s (hover to see current wind gust speed)